When you browse on this site, cookies collect data to enhance your experience and personalize the content and advertising you see.
Visit our Privacy Policy to learn more. By continuing to use the site, you agree to this use of cookies and data.
  • en France
  • Liste des pays
  • À 7 jours
  • Température de l'eau
  • Carte météo
  • Widgets météo
  • user-avatar
    Se connecter

    Météo par heure à Ondjiva 

    Ce jour, 2 Juin, Mardi

    Heure Température Précipitation Vent Pression Humidité
    00:00 +17°C° 0 mm 2 m/s 670 mmHg 45%
    01:00 +17°C° 0 mm 2 m/s 670 mmHg 45%
    02:00 +16°C° 0 mm 2 m/s 670 mmHg 47%
    03:00 +16°C° 0 mm 2 m/s 669 mmHg 48%
    04:00 +15°C° 0 mm 2 m/s 669 mmHg 50%
    05:00 +16°C° 0 mm 2 m/s 670 mmHg 50%
    06:00 +16°C° 0 mm 3 m/s 670 mmHg 49%
    07:00 +17°C° 0 mm 3 m/s 671 mmHg 49%
    08:00 +20°C° 0 mm 4 m/s 671 mmHg 41%
    09:00 +23°C° 0 mm 4 m/s 672 mmHg 33%
    10:00 +27°C° 0 mm 5 m/s 672 mmHg 26%
    11:00 +28°C° 0 mm 5 m/s 672 mmHg 24%
    12:00 +29°C° 0 mm 5 m/s 671 mmHg 22%
    13:00 +30°C° 0 mm 4 m/s 671 mmHg 20%
    14:00 +30°C° 0 mm 4 m/s 670 mmHg 20%
    15:00 +30°C° 0 mm 4 m/s 670 mmHg 20%
    16:00 +29°C° 0 mm 3 m/s 669 mmHg 20%
    17:00 +27°C° 0 mm 3 m/s 669 mmHg 24%
    18:00 +24°C° 0 mm 2 m/s 669 mmHg 27%
    19:00 +22°C° 0 mm 1 m/s 668 mmHg 31%
    20:00 +20°C° 0 mm 2 m/s 668 mmHg 32%
    21:00 +19°C° 0 mm 2 m/s 668 mmHg 33%
    22:00 +18°C° 0 mm 3 m/s 668 mmHg 34%
    23:00 +17°C° 0 mm 3 m/s 668 mmHg 34%

    Demain, 3 Juin, Mercredi

    Heure Température Précipitation Vent Pression Humidité
    00:00 +17°C° 0 mm 3 m/s 668 mmHg 34%
    01:00 +16°C° 0 mm 3 m/s 668 mmHg 35%
    02:00 +17°C° 0 mm 3 m/s 668 mmHg 35%
    03:00 +17°C° 0 mm 3 m/s 669 mmHg 34%
    04:00 +17°C° 0 mm 4 m/s 669 mmHg 34%
    05:00 +17°C° 0 mm 3 m/s 669 mmHg 35%
    06:00 +16°C° 0 mm 3 m/s 669 mmHg 36%
    07:00 +16°C° 0 mm 3 m/s 669 mmHg 37%
    08:00 +19°C° 0 mm 3 m/s 670 mmHg 32%
    09:00 +22°C° 0 mm 4 m/s 671 mmHg 26%
    10:00 +25°C° 0 mm 4 m/s 671 mmHg 20%
    11:00 +27°C° 0 mm 4 m/s 671 mmHg 19%
    12:00 +28°C° 0 mm 3 m/s 670 mmHg 18%
    13:00 +30°C° 0 mm 2 m/s 670 mmHg 17%
    14:00 +30°C° 0 mm 2 m/s 669 mmHg 17%
    15:00 +29°C° 0 mm 1 m/s 669 mmHg 17%
    16:00 +29°C° 0 mm 1 m/s 669 mmHg 17%
    17:00 +27°C° 0 mm 1 m/s 668 mmHg 21%
    18:00 +24°C° 0 mm 2 m/s 668 mmHg 24%
    19:00 +21°C° 0 mm 2 m/s 668 mmHg 27%
    20:00 +20°C° 0 mm 2 m/s 668 mmHg 28%
    21:00 +19°C° 0 mm 3 m/s 668 mmHg 30%
    22:00 +18°C° 0 mm 3 m/s 668 mmHg 31%
    23:00 +17°C° 0 mm 3 m/s 667 mmHg 32%

    Après-demain, 4 Juin, Jeudi

    Heure Température Précipitation Vent Pression Humidité
    00:00 +17°C° 0 mm 2 m/s 667 mmHg 33%
    01:00 +16°C° 0 mm 2 m/s 667 mmHg 34%
    02:00 +16°C° 0 mm 2 m/s 667 mmHg 33%
    03:00 +15°C° 0 mm 2 m/s 667 mmHg 33%
    04:00 +15°C° 0 mm 2 m/s 667 mmHg 33%
    05:00 +15°C° 0 mm 2 m/s 668 mmHg 34%
    06:00 +15°C° 0 mm 2 m/s 668 mmHg 34%
    07:00 +15°C° 0 mm 2 m/s 669 mmHg 35%
    08:00 +19°C° 0 mm 3 m/s 670 mmHg 30%
    09:00 +22°C° 0 mm 3 m/s 670 mmHg 25%
    10:00 +26°C° 0 mm 3 m/s 671 mmHg 20%
    11:00 +28°C° 0 mm 2 m/s 671 mmHg 19%
    12:00 +30°C° 0 mm 2 m/s 670 mmHg 18%
    13:00 +31°C° 0 mm 1 m/s 670 mmHg 17%
    14:00 +31°C° 0 mm 1 m/s 670 mmHg 17%
    15:00 +31°C° 0 mm 1 m/s 669 mmHg 17%
    16:00 +30°C° 0 mm 1 m/s 669 mmHg 17%
    17:00 +27°C° 0 mm 1 m/s 668 mmHg 20%
    18:00 +25°C° 0 mm 2 m/s 668 mmHg 24%
    19:00 +21°C° 0 mm 3 m/s 668 mmHg 27%
    20:00 +20°C° 0 mm 3 m/s 668 mmHg 29%
    21:00 +19°C° 0 mm 3 m/s 668 mmHg 30%
    22:00 +18°C° 0 mm 3 m/s 668 mmHg 32%
    23:00 +18°C° 0 mm 3 m/s 668 mmHg 33%

    5 Juin, Vendredi

    Heure Température Précipitation Vent Pression Humidité
    00:00 +17°C° 0 mm 2 m/s 668 mmHg 34%
    01:00 +16°C° 0 mm 2 m/s 668 mmHg 36%
    02:00 +16°C° 0 mm 2 m/s 668 mmHg 37%
    03:00 +15°C° 0 mm 2 m/s 668 mmHg 39%
    04:00 +14°C° 0 mm 2 m/s 668 mmHg 40%
    05:00 +14°C° 0 mm 1 m/s 669 mmHg 41%
    06:00 +14°C° 0 mm 1 m/s 669 mmHg 43%
    07:00 +14°C° 0 mm 1 m/s 670 mmHg 44%
    08:00 +17°C° 0 mm 2 m/s 670 mmHg 37%
    09:00 +21°C° 0 mm 3 m/s 671 mmHg 30%
    10:00 +26°C° 0 mm 3 m/s 672 mmHg 23%
    11:00 +28°C° 0 mm 3 m/s 672 mmHg 21%
    12:00 +29°C° 0 mm 3 m/s 671 mmHg 19%
    13:00 +31°C° 0 mm 3 m/s 671 mmHg 17%
    14:00 +31°C° 0 mm 3 m/s 671 mmHg 17%
    15:00 +31°C° 0 mm 2 m/s 670 mmHg 17%
    16:00 +31°C° 0 mm 2 m/s 670 mmHg 16%
    17:00 +28°C° 0 mm 1 m/s 670 mmHg 20%
    18:00 +25°C° 0 mm 1 m/s 669 mmHg 24%
    19:00 +22°C° 0 mm 1 m/s 669 mmHg 27%
    20:00 +21°C° 0 mm 1 m/s 669 mmHg 29%
    21:00 +20°C° 0 mm 2 m/s 669 mmHg 30%
    22:00 +19°C° 0 mm 3 m/s 669 mmHg 31%
    23:00 +18°C° 0 mm 3 m/s 669 mmHg 32%

    6 Juin, Samedi

    Heure Température Précipitation Vent Pression Humidité
    00:00 +17°C° 0 mm 3 m/s 669 mmHg 34%
    01:00 +17°C° 0 mm 3 m/s 669 mmHg 35%
    02:00 +16°C° 0 mm 3 m/s 669 mmHg 36%
    03:00 +14°C° 0 mm 3 m/s 669 mmHg 37%
    04:00 +14°C° 0 mm 3 m/s 669 mmHg 39%
    05:00 +13°C° 0 mm 3 m/s 669 mmHg 39%
    06:00 +14°C° 0 mm 2 m/s 670 mmHg 40%
    07:00 +13°C° 0 mm 2 m/s 670 mmHg 41%
    08:00 +17°C° 0 mm 3 m/s 671 mmHg 34%
    09:00 +21°C° 0 mm 4 m/s 672 mmHg 28%
    10:00 +25°C° 0 mm 4 m/s 673 mmHg 21%
    11:00 +27°C° 0 mm 4 m/s 672 mmHg 19%
    12:00 +29°C° 0 mm 4 m/s 672 mmHg 17%
    13:00 +32°C° 0 mm 4 m/s 672 mmHg 16%
    14:00 +31°C° 0 mm 3 m/s 671 mmHg 16%
    15:00 +31°C° 0 mm 3 m/s 671 mmHg 16%
    16:00 +31°C° 0 mm 2 m/s 670 mmHg 16%
    17:00 +28°C° 0 mm 2 m/s 670 mmHg 20%
    18:00 +25°C° 0 mm 2 m/s 669 mmHg 23%
    19:00 +20°C° 0 mm 2 m/s 669 mmHg 27%
    20:00 +19°C° 0 mm 2 m/s 669 mmHg 29%
    21:00 +18°C° 0 mm 2 m/s 669 mmHg 31%
    22:00 +17°C° 0 mm 2 m/s 669 mmHg 33%
    23:00 +16°C° 0 mm 2 m/s 669 mmHg 34%

    7 Juin, Dimanche

    Heure Température Précipitation Vent Pression Humidité
    00:00 +16°C° 0 mm 2 m/s 669 mmHg 36%
    01:00 +15°C° 0 mm 2 m/s 669 mmHg 37%
    02:00 +14°C° 0 mm 3 m/s 669 mmHg 38%
    03:00 +13°C° 0 mm 3 m/s 669 mmHg 38%
    04:00 +13°C° 0 mm 3 m/s 669 mmHg 38%
    05:00 +12°C° 0 mm 3 m/s 669 mmHg 40%
    06:00 +12°C° 0 mm 3 m/s 669 mmHg 41%
    07:00 +12°C° 0 mm 3 m/s 670 mmHg 42%
    08:00 +17°C° 0 mm 4 m/s 671 mmHg 36%
    09:00 +20°C° 0 mm 4 m/s 671 mmHg 30%
    10:00 +25°C° 0 mm 5 m/s 672 mmHg 25%
    11:00 +26°C° 0 mm 5 m/s 672 mmHg 22%
    12:00 +28°C° 0 mm 4 m/s 671 mmHg 19%
    13:00 +30°C° 0 mm 3 m/s 671 mmHg 16%
    14:00 +30°C° 0 mm 3 m/s 670 mmHg 16%
    15:00 +30°C° 0 mm 3 m/s 670 mmHg 15%
    16:00 +29°C° 0 mm 2 m/s 670 mmHg 15%
    17:00 +26°C° 0 mm 2 m/s 669 mmHg 19%
    18:00 +23°C° 0 mm 2 m/s 669 mmHg 23%
    19:00 +19°C° 0 mm 2 m/s 669 mmHg 27%
    20:00 +18°C° 0 mm 2 m/s 669 mmHg 30%
    21:00 +17°C° 0 mm 2 m/s 669 mmHg 32%
    22:00 +16°C° 0 mm 2 m/s 669 mmHg 34%
    23:00 +16°C° 0 mm 2 m/s 669 mmHg 35%
    Voir plus